Dewpoint
71 71 74 74 74 75 75 74 74 74 75 74 74 74 73 74 74 74 75 76 75 75 75 76 76 75 76 76 76 75 75 75 75 75 75 75 75 75 75 75 75 74 75 74 74 74 75 75 75 75 75 76 76 76 76 75 75 75 75 75 75 75 75 74 75 74 75 74 75 75 74 75 75 75 74 74 74 74 75 75 75 74 74 74 74
71 73 74 74 75 75 75 74 74 74 74 74 75 74 74 75 75 76 76 76 76 76 76 76 75 76 75 76 76 75 75 75 75 75 75 75 74 74 75 75 75 75 75 75 75 75 75 75 75 75 76 76 76 76 76 75 75 75 75 75 75 75 75 75 75 75 75 75 75 75 74 75 75 75 75 74 74 75 75 75 74 74 74 73 74
73 74 74 75 75 75 75 74 75 75 75 75 75 73 75 75 75 76 76 76 76 76 76 76 76 76 75 75 75 75 75 75 75 75 75 74 74 75 76 76 75 75 75 75 74 74 76 76 75 75 75 76 76 76 75 74 75 74 74 75 75 75 75 75 74 75 75 75 75 75 75 75 74 74 74 74 75 74 75 74 74 74 73 74 74
74 74 74 75 75 75 74 75 75 75 75 75 74 74 75 75 76 76 75 76 76 76 76 76 76 76 76 76 76 76 75 75 75 75 75 75 75 75 75 75 75 76 75 75 75 75 75 75 75 75 75 75 75 75 75 75 74 74 74 75 75 75 75 74 74 75 75 75 75 76 75 74 74 74 74 73 74 74 74 74 74 74 74 73 74
74 74 74 75 75 75 75 75 75 75 75 75 75 75 75 75 75 75 76 76 76 76 76 76 76 76 76 76 76 76 75 75 75 75 75 75 75 75 75 75 75 75 75 75 75 76 75 75 75 75 75 75 75 75 75 74 74 75 74 75 75 75 74 74 74 74 75 75 76 75 74 74 75 73 73 73 73 74 73 74 74 73 73 73 73
74 74 75 75 75 76 75 75 75 76 75 75 75 75 75 75 76 75 76 76 77 76 76 76 76 76 76 75 75 76 75 76 76 75 75 75 75 75 75 74 75 75 75 75 75 75 74 74 75 75 75 75 75 75 75 75 76 76 76 75 74 74 74 74 74 75 75 75 75 74 74 75 74 74 73 72 72 73 73 73 73 73 73 74 74
74 74 75 75 75 75 75 76 76 75 75 76 75 75 75 75 76 76 76 76 76 75 75 75 76 75 75 76 75 76 76 76 76 75 75 75 74 75 75 75 75 75 74 75 75 75 75 75 75 75 76 76 76 75 75 75 75 76 76 75 74 74 74 74 74 75 75 74 73 74 73 74 74 74 73 73 73 72 72 72 72 72 73 73 74
74 75 75 75 75 76 76 76 76 75 76 75 75 75 75 75 76 76 76 75 75 75 75 75 76 76 76 76 76 76 75 75 75 76 75 75 75 75 76 76 76 75 75 75 76 75 75 75 75 75 75 75 75 75 74 75 74 75 76 75 75 74 74 74 75 75 75 74 74 74 74 74 74 74 73 73 73 73 73 71 70 71 72 72 72
74 74 75 75 75 76 76 76 76 76 75 75 75 75 75 75 76 76 76 75 75 75 75 75 75 76 76 76 75 75 75 75 75 75 76 75 74 75 76 76 75 75 75 75 76 75 75 75 75 74 74 75 74 76 76 75 75 74 74 74 75 74 75 74 74 75 74 74 74 74 75 74 73 74 73 73 73 73 73 73 71 70 71 72 71
74 74 74 74 75 76 76 76 75 75 75 75 75 75 75 75 75 75 75 75 76 75 75 76 75 75 75 75 75 75 75 75 76 76 75 75 75 75 76 75 75 75 75 76 76 75 75 75 75 75 75 75 74 75 75 76 75 75 74 74 74 75 75 75 75 75 74 74 74 74 75 74 74 73 73 73 73 72 70 71 71 70 69 70 72
74 74 74 74 75 76 76 76 76 75 75 75 75 75 75 75 75 74 75 75 73 75 75 75 75 75 75 75 75 75 75 76 76 75 75 75 74 75 75 75 75 75 75 75 75 75 75 75 75 76 74 75 76 76 75 76 76 76 75 74 74 75 75 75 75 73 74 74 74 74 74 75 74 75 74 74 74 74 73 72 72 71 70 69 69
74 74 74 75 76 76 76 76 76 75 75 75 75 75 75 75 75 75 75 75 74 75 75 74 75 75 75 75 75 75 75 75 75 75 74 74 74 75 75 75 75 75 75 74 75 75 75 75 75 76 76 76 75 76 75 75 75 75 74 74 74 74 75 75 73 73 73 74 75 74 73 73 75 74 74 75 74 74 74 73 73 73 72 72 71
74 74 75 75 76 76 76 76 76 76 75 75 75 75 75 75 75 75 75 74 75 75 75 73 75 75 75 75 75 75 75 75 74 74 74 74 75 76 75 75 75 75 74 75 75 75 75 76 76 76 76 76 75 75 75 75 75 74 74 73 74 74 75 75 73 73 73 73 74 74 74 75 74 75 74 75 75 75 74 74 73 73 73 72 72
74 74 75 75 75 76 76 75 76 75 75 75 75 74 74 73 73 74 74 74 75 75 75 75 75 75 75 75 76 75 75 74 75 75 75 75 75 75 75 74 74 74 74 74 75 75 76 76 76 76 75 75 75 75 75 75 75 74 74 74 74 75 75 75 74 73 74 74 75 74 73 75 75 75 73 74 74 74 74 74 74 74 74 73 72
74 74 75 75 76 75 75 75 75 75 75 75 74 74 72 73 73 73 74 74 75 75 75 75 75 75 75 75 75 75 75 74 75 75 75 75 75 75 74 74 74 74 74 75 75 75 76 76 75 75 75 74 74 75 74 74 75 75 75 75 75 74 76 74 73 73 73 74 75 74 73 74 74 72 71 72 73 72 72 73 73 74 74 73 73
74 74 75 75 75 75 76 75 75 75 75 74 74 74 74 73 73 74 74 74 74 75 75 74 75 75 75 75 75 75 75 75 75 75 75 74 74 74 75 74 74 74 75 75 75 75 75 75 75 75 74 75 75 75 74 75 75 75 75 75 75 74 76 74 73 73 74 74 74 75 74 74 72 72 72 71 71 72 72 72 72 71 72 74 74
75 75 74 74 74 74 75 74 74 74 74 74 74 74 73 74 73 74 74 74 74 74 74 73 73 74 74 74 75 75 75 75 75 75 74 74 74 74 74 75 75 75 75 75 75 75 75 75 75 74 74 74 75 75 75 74 75 74 75 75 75 74 76 75 73 73 73 74 74 74 73 74 73 72 72 72 72 72 72 72 72 71 71 70 72
74 74 73 73 73 74 73 73 73 73 73 74 73 74 74 74 74 73 73 73 74 73 73 73 73 73 73 74 75 75 75 75 75 75 74 74 75 75 75 75 75 75 75 75 75 75 75 75 75 75 75 75 75 75 75 76 75 76 75 74 75 74 76 75 73 73 73 74 74 74 74 75 73 72 72 72 72 72 72 73 72 72 72 72 71
73 73 73 73 73 73 73 73 73 73 73 73 74 74 74 74 74 74 74 74 73 73 73 72 72 73 74 75 75 74 75 75 75 74 74 75 75 75 75 75 75 75 75 75 76 76 75 75 75 75 75 75 76 75 76 76 76 75 75 75 75 76 75 75 72 73 74 75 74 73 74 74 74 72 72 72 71 71 71 72 72 72 72 72 71
73 73 72 72 72 72 72 73 73 73 73 73 72 72 74 73 73 73 74 74 73 72 73 73 73 73 73 74 74 74 74 74 75 74 74 75 75 75 75 75 75 75 75 76 76 75 76 76 76 76 76 76 75 77 76 76 76 76 76 76 77 75 75 72 72 73 73 74 74 74 74 74 75 73 73 73 73 71 71 72 72 73 73 72 71
72 72 72 72 72 72 72 73 73 73 73 73 72 72 73 72 73 73 73 73 73 72 73 73 73 73 73 74 74 75 74 74 75 75 75 76 75 75 75 75 75 75 76 76 76 76 76 76 76 76 76 76 77 77 77 78 78 78 78 78 76 74 72 72 72 73 73 74 75 74 74 75 74 72 73 73 74 72 71 72 72 73 73 73 73
71 72 72 72 72 72 72 73 73 73 73 73 72 72 74 73 72 73 73 73 72 72 74 72 73 73 73 74 75 75 74 74 75 76 76 75 75 75 75 74 75 76 76 76 76 76 76 76 76 76 76 77 77 75 76 76 77 77 78 78 74 74 73 71 72 73 73 73 75 74 74 75 73 73 73 73 73 73 72 72 72 73 73 73 72
70 71 71 72 71 72 73 73 73 73 73 73 73 73 72 72 72 72 72 72 71 71 73 72 72 72 73 74 75 74 75 75 76 76 77 75 75 75 75 75 76 76 76 76 76 76 76 76 75 75 75 75 75 75 75 75 74 76 76 75 74 74 74 72 72 72 73 73 74 74 74 75 74 74 74 73 73 73 73 73 72 73 73 73 73
69 70 71 72 72 72 73 73 73 73 73 73 73 72 71 72 72 71 72 72 72 73 72 73 73 73 74 74 74 75 74 75 75 76 77 75 75 75 75 77 77 76 77 75 76 76 76 76 76 76 75 75 74 74 74 74 74 75 75 75 74 74 72 72 72 73 73 73 74 74 75 75 75 74 74 74 73 73 73 73 73 73 73 74 73
70 70 71 71 72 72 73 73 73 73 73 71 72 71 72 72 73 73 72 73 73 73 73 72 73 73 73 74 74 74 74 74 74 74 74 74 74 74 74 74 74 74 77 74 74 74 74 73 73 73 73 74 74 74 74 74 74 74 74 74 74 74 71 73 72 72 72 72 74 74 74 75 75 75 75 75 75 74 74 74 74 73 74 73 73
70 70 71 71 72 72 73 73 73 73 72 71 71 72 72 72 73 72 72 72 73 73 73 73 73 73 74 74 74 74 74 73 73 73 73 74 73 73 73 73 73 73 75 74 74 74 74 73 73 73 73 73 73 74 74 75 74 74 74 74 74 73 72 72 71 72 72 72 73 74 75 75 76 75 75 75 75 75 75 75 74 75 75 75 75
70 70 71 71 71 72 73 73 72 72 72 73 73 72 72 72 73 72 72 72 73 73 73 73 73 74 74 74 73 73 73 73 73 73 73 73 73 73 73 73 73 73 74 74 74 74 74 73 73 73 73 73 73 73 74 73 74 73 73 73 73 72 72 71 71 71 72 72 73 74 75 75 76 76 76 76 75 75 75 75 75 75 75 75 75
70 70 70 71 72 72 73 72 72 72 73 73 72 72 72 72 72 73 72 73 73 73 73 73 73 74 74 74 74 73 73 73 73 73 73 73 73 73 73 73 73 73 74 74 74 73 73 73 73 73 73 73 72 72 72 72 72 73 72 72 71 70 70 71 71 71 71 72 73 74 75 75 76 76 76 76 76 76 76 76 76 76 76 76 75
69 69 70 71 72 72 73 72 73 73 73 72 72 72 72 73 72 72 72 73 72 72 73 73 73 74 74 74 74 73 73 73 73 73 73 73 73 73 73 73 73 73 74 73 73 73 73 73 73 72 73 73 72 72 73 72 72 71 70 69 68 70 70 70 70 70 70 71 71 72 74 75 77 77 76 76 76 76 76 76 76 76 76 76 76
69 69 70 71 72 73 72 72 73 73 73 72 72 72 72 72 72 72 73 73 72 73 73 73 73 73 74 74 74 73 73 73 73 73 73 73 73 73 73 73 73 73 73 73 73 73 72 72 73 73 72 72 72 73 74 72 70 69 68 67 68 68 70 70 70 70 70 71 71 72 74 75 76 77 76 76 77 77 77 77 76 76 76 76 76
70 70 70 71 72 72 72 73 73 74 73 72 72 72 73 72 72 72 73 72 72 73 73 73 73 73 74 74 74 75 73 73 73 73 73 73 73 73 73 73 73 73 73 73 73 73 73 73 73 73 73 73 74 74 73 73 72 69 68 67 66 70 70 70 69 69 68 70 71 72 72 74 75 77 77 77 78 78 78 77 76 76 76 77 77
70 70 71 71 72 72 72 73 73 74 73 73 73 73 72 72 72 73 72 72 73 73 73 73 73 73 73 73 74 74 75 73 73 73 73 73 73 73 73 73 73 73 73 73 74 74 74 74 75 75 75 75 74 74 75 73 72 70 67 66 66 68 69 70 68 68 69 70 71 71 72 72 74 76 77 77 78 78 78 77 77 77 77 77 77
70 70 70 71 71 72 72 73 73 74 72 72 73 73 73 73 73 73 72 73 73 73 73 72 72 73 73 73 73 73 75 73 73 74 76 73 73 73 72 73 73 73 72 73 76 75 74 73 74 75 75 75 74 74 74 73 72 72 68 64 66 67 68 69 70 70 69 69 70 70 71 72 73 74 76 77 77 77 77 77 77 77 77 77 77
69 70 70 71 72 72 72 73 73 72 72 72 73 72 73 73 74 73 74 73 73 72 73 72 73 73 73 73 73 73 75 73 73 73 73 73 72 72 72 72 72 72 74 76 75 75 74 73 75 73 75 74 73 74 74 73 72 72 69 65 66 67 68 68 69 70 70 69 68 70 70 71 72 73 74 75 76 78 78 77 77 77 78 78 77
70 70 70 71 72 71 72 72 73 72 73 73 73 72 73 73 73 73 73 73 72 72 72 72 72 73 73 73 73 74 75 73 74 73 73 73 72 72 72 72 72 73 75 76 76 75 74 73 75 73 74 73 73 74 73 73 72 72 72 71 65 66 68 67 69 70 70 69 70 68 71 71 72 72 73 74 75 76 78 77 77 77 78 78 78
70 70 71 71 71 71 72 71 72 72 72 73 72 73 72 73 73 74 73 72 72 72 72 72 72 72 73 73 74 74 76 74 74 74 73 73 72 72 72 72 73 75 76 75 76 74 73 73 74 74 74 72 74 72 73 72 72 72 73 69 67 69 68 67 67 67 67 69 70 71 72 72 73 73 76 77 77 77 77 77 77 77 77 78 78
70 70 71 70 70 71 72 71 71 71 72 73 72 72 72 72 73 74 72 72 72 72 72 72 73 73 73 72 73 75 76 74 74 74 73 73 72 72 71 73 76 77 76 75 74 76 74 73 74 75 75 74 72 71 72 72 72 72 72 65 63 71 69 69 67 67 67 68 69 68 70 72 73 76 77 77 77 77 76 77 77 76 77 78 78
70 70 71 70 70 70 70 70 71 71 71 72 71 71 72 72 72 73 74 72 71 71 72 72 73 73 73 73 74 76 77 75 75 74 74 73 73 72 72 75 76 76 75 74 74 74 74 74 74 75 75 73 72 72 71 71 70 71 69 62 66 67 68 68 67 72 69 68 70 69 70 71 72 72 74 76 76 77 76 74 75 75 76 77 78
70 70 70 70 70 70 70 71 70 70 71 71 71 71 71 71 71 72 72 71 71 71 72 72 72 73 72 73 75 77 78 76 76 75 74 74 74 74 75 76 76 76 75 73 73 75 75 74 74 74 74 74 73 73 72 72 72 67 67 65 66 68 69 69 72 71 69 66 67 71 68 71 72 74 75 76 76 76 76 75 74 75 75 76 77
70 70 70 70 70 70 69 71 70 70 70 71 71 71 71 71 70 70 70 72 70 73 72 72 73 73 73 74 76 76 77 76 75 75 75 75 74 74 75 76 77 76 75 74 74 75 75 75 75 74 74 74 75 73 71 70 68 64 68 65 67 67 69 73 69 69 70 68 68 71 69 69 72 71 70 71 73 73 75 75 77 76 75 75 76
69 69 69 70 70 69 69 69 70 70 70 70 70 70 69 70 70 69 69 69 70 72 72 73 73 73 75 75 76 76 76 76 76 75 75 76 75 75 75 75 76 77 76 75 75 76 77 76 76 74 74 73 72 72 71 68 65 66 66 64 66 67 71 71 67 66 66 67 67 69 71 70 71 72 71 71 72 71 74 75 75 76 76 77 76
68 69 69 69 70 69 68 69 69 70 70 70 70 70 70 70 69 69 69 69 71 72 72 73 73 74 76 76 76 76 76 75 77 76 76 76 75 75 75 75 74 74 77 76 77 77 75 75 74 74 74 73 72 72 71 66 65 62 64 63 66 64 68 66 64 63 64 63 64 67 69 68 67 68 70 72 71 72 72 74 75 75 76 76 76
68 68 69 69 69 69 69 69 69 69 70 70 71 70 70 71 70 69 69 69 70 72 72 73 75 75 75 75 76 76 76 75 77 78 76 75 75 75 75 75 75 76 75 74 74 74 74 74 74 74 73 72 74 74 73 69 66 68 64 65 61 60 67 66 67 66 61 61 62 63 66 66 65 67 70 71 71 72 71 73 74 75 75 76 76
68 68 68 68 68 70 69 69 69 70 70 71 72 70 70 70 70 70 70 70 70 73 73 74 74 75 75 75 76 76 76 75 77 78 76 76 76 75 75 75 75 76 74 74 75 74 74 74 73 75 73 70 70 71 75 71 69 67 63 63 61 59 60 62 63 64 62 60 61 61 64 64 65 68 72 70 67 71 73 73 73 74 75 76 76
67 68 68 68 68 69 69 69 69 70 70 72 72 71 72 70 71 71 72 72 72 72 72 72 73 74 74 75 75 76 76 76 76 77 77 75 75 75 76 75 75 75 75 76 75 74 75 74 74 74 73 72 70 70 72 73 71 67 67 64 62 61 60 63 57 65 61 62 60 62 70 66 64 69 69 69 70 70 69 71 74 74 75 75 75
67 67 67 68 68 69 69 69 70 70 70 71 71 71 72 69 69 69 69 69 69 70 70 70 72 73 73 74 75 75 76 76 76 76 76 76 75 75 75 75 75 76 76 75 75 73 73 74 75 74 74 75 72 70 69 72 71 74 68 66 67 59 64 63 57 63 66 62 62 63 64 64 64 65 69 69 68 68 72 71 73 73 73 73 74
67 67 67 68 68 69 69 69 70 70 70 71 71 72 70 69 69 69 69 69 69 70 71 71 72 73 74 74 75 75 75 75 76 76 75 76 75 75 75 75 75 76 79 75 75 73 72 74 77 75 75 76 72 71 70 69 72 73 70 69 72 71 65 65 62 60 60 66 64 63 61 63 64 62 63 64 66 67 70 71 70 69 71 72 72
67 66 67 67 68 69 69 69 70 71 70 71 71 72 70 69 69 69 69 69 68 69 71 72 73 74 74 74 74 74 75 75 75 75 75 75 76 75 75 75 76 75 77 77 75 74 75 75 77 75 76 76 73 72 70 70 70 69 71 68 69 68 68 64 63 61 63 60 63 63 65 62 64 63 64 64 64 65 67 70 68 68 70 71 73
66 66 67 67 68 69 70 70 70 71 70 72 71 71 71 69 69 69 69 70 70 70 72 74 73 75 73 73 74 74 74 75 75 75 75 75 77 76 75 75 76 75 78 79 76 75 74 75 75 75 74 75 76 74 72 72 70 69 69 69 69 67 66 67 67 66 65 61 59 59 64 64 63 63 63 65 65 65 66 67 69 70 74 74 73
66 67 67 68 68 69 69 70 70 70 71 72 72 71 71 71 69 69 69 69 71 71 72 72 72 74 73 73 73 73 73 74 74 75 75 75 75 77 76 75 75 75 77 77 75 76 75 74 74 75 75 74 74 75 73 73 72 71 69 70 68 69 68 68 65 65 62 61 56 59 62 62 63 66 66 64 68 68 67 69 69 68 70 72 73
65 66 66 68 68 69 69 69 70 70 72 72 71 70 70 70 69 69 69 69 70 70 71 72 72 73 73 73 73 73 73 73 74 75 75 75 75 77 76 75 75 77 78 75 74 73 73 73 74 75 76 74 74 74 74 74 73 73 70 70 68 66 66 63 66 66 62 63 63 59 66 64 61 62 68 66 72 67 68 70 68 67 72 72 73